FENGYUN 1C DEB

Satellite information

Favourite Embed

Satellite Type and Status

DEBRISIN ORBIT

Key statistics

Satellite FENGYUN 1C DEB at a glance.

Uptime

9662

Days in orbit

Revolutions

≈ 14.5

Per day

Orbit

SSO

Sun Synchronous Orbit

Inclination

99.3

Latest

Satellite identification and parameters

Extended collection of information and parameters for FENGYUN 1C DEB.

Object identification

Identified? True

Debris? True

Object name: FENGYUN 1C DEB

International designator: 1999-025ZE

Object number (NORAD): 30293

Object ID (CCSDS): 30293

Country: PEOPLES REPUBLIC OF CHINA (PRC)

Current information (Y/N): Y

RCS size: SMALL

Orbital parameters

Period: 99.419 minutes

Inclination: 99.2576 deg

SMA: 7108.988 km

Apoapsis: 785.277 km

Periapsis: 676.43 km

RAAN: 120.7163 deg

Eccentricy: 0.0076556

Argument of periapsis: 269.4618 deg

Mean anomaly: 220.707 deg

Mean motion: 14.48408536 rev/day

Mean motion (dot): 0.00005355 rev/day2

B* drag term: 0.0013913 1/REarth

Two-line elements (TLE)

Creation date: Oct. 22, 2025, 12:16 a.m.

Reference frame: TEME

Reference center: EARTH

Epoch: Oct. 21, 2025, 6:27 p.m. UTC

TLE line 0: 0 FENGYUN 1C DEB

TLE line 1: 1 30293U 99025ZE 25294.76907104 .00005355 00000-0 13913-2 0 9995

TLE line 2: 2 30293 99.2576 120.7163 0076556 269.4618 220.7070 14.48408536982248

Live tracking on map

Real-time ground track for satellite FENGYUN 1C DEB.

In-orbit conjunctions

A list of the most updated potential collisions computed for object FENGYUN 1C DEB.

Target Orbit TCA Probability of collision Miss distance Type
CZ-6A DEB SSO 2025-09-15 23:31:32 0.0001918412 267.0 (m) DEBRIS
IDEFIX/ARIANE 42P SSO 2025-02-21 11:27:45 0.000415469 121.0 (m) PAYLOAD
FENGYUN 1C DEB SSO 2024-11-10 08:30:52 0.000119934 640.0 (m) DEBRIS
ORBCOMM FM 26 LEO 2024-10-31 11:32:11 0.000144394 112.0 (m) PAYLOAD
FASAT B SSO 2024-09-25 18:07:45 0.0004729255 690.0 (m) PAYLOAD

Associated space launch

Chinese polar orbiting meteorological satellite

FENGYUN 1C DEB was lifted into orbit during the mission ‘Long March 4B | Feng Yun 1C’, on board a Long March 4B space rocket.

The launch took place on May 10, 1999, 1:33 a.m. from Launch Complex 7.

For more information about the launch, click the button.

Launch to space Long March 4B | Feng Yun 1C
Long March 4B | Feng Yun 1C

Agency: N/A

Status: Launch Successful

Launch date: May 10, 1999, 1:33 a.m. UTC

Rocket: Long March 4B

Launch pad: Launch Complex 7

Location: Taiyuan Satellite Launch Center, People's Republic of China

...

Latest news about this satellite

There are no fresh news available about this satellite. Check back as we update our databases every day.


Newsletter sign-up

Weekly statistics, charts and insights to help you stay on top of the space industry.